Location: Cave
(41.8160°N, 12.9350°E)
Time: 10:43:25
(UTC+02:00)

ISS - Pass Details

Date: 03 July 2019
Orbit: 409 x 418 km, 51.6° (Epoch: 18 July)

Event Time Altitude Azimuth Distance (km) Brightness Sun altitude
Exits shadow 04:09:16 26° 231° (SW) 853 -2.8 -13.4°
Maximum altitude 04:11:00 86° 146° (SE) 415 -3.9 -13.2°
Drops below altitude 10° 04:14:19 10° 56° (NE) 1,476 0.4 -12.7°
Sets 04:16:25 0° 56° (NE) 2,340 1.8 -12.5°
